COSMOS 2252

Satellite information

Favourite Embed

Satellite Type and Status

PAYLOADIN ORBIT

Key statistics

Satellite COSMOS 2252 at a glance.

Uptime

11814

Days in orbit

Revolutions

≈ 12.6

Per day

Orbit

LEO

Low Earth Orbit

Inclination

82.6

Latest

Satellite identification and parameters

Extended collection of information and parameters for COSMOS 2252.

Object identification

Identified? True

Debris? False

Object name: COSMOS 2252

International designator: 1993-038A

Object number (NORAD): 22687

Object ID (CCSDS): 22687

Country: COMMONWEALTH OF INDEPENDENT STATES (CIS)

Current information (Y/N): Y

RCS size: MEDIUM

Orbital parameters

Period: 113.985 minutes

Inclination: 82.5872 deg

SMA: 7787.386 km

Apoapsis: 1416.182 km

Periapsis: 1402.32 km

RAAN: 16.6452 deg

Eccentricy: 0.00089003

Argument of periapsis: 140.583 deg

Mean anomaly: 231.2682 deg

Mean motion: 12.6332523 rev/day

Mean motion (dot): 0.00000035 rev/day2

B* drag term: 0.00013611973 1/REarth

Two-line elements (TLE)

Creation date: Oct. 28, 2025, 2:18 a.m.

Reference frame: TEME

Reference center: EARTH

Epoch: Oct. 27, 2025, 12:11 p.m. UTC

TLE line 0: 0 COSMOS 2252

TLE line 1: 1 22687U 93038A 25300.50766370 .00000035 00000-0 13612-3 0 9996

TLE line 2: 2 22687 82.5872 16.6452 0008900 140.5830 231.2682 12.63325230491141

Live tracking on map

Real-time ground track for satellite COSMOS 2252.

In-orbit conjunctions

There are no conjunctions computed for COSMOS 2252, at the moment. Check back to stay up to date, as we update our databases every day.

Go to all conjunctions

Associated space launch

Second generation store-dump military communications satellites

COSMOS 2252 was lifted into orbit during the mission ‘Tsiklon-3 | Strela-3 95 to 100’, on board a Tsiklon-3 space rocket.

The launch took place on June 24, 1993, 4:12 a.m. from 32/1.

For more information about the launch, click the button.

Launch to space Tsiklon-3 | Strela-3 95 to 100
Tsiklon-3 | Strela-3 95 to 100

Agency: N/A

Status: Launch Successful

Launch date: June 24, 1993, 4:12 a.m. UTC

Rocket: Tsiklon-3

Launch pad: 32/1

Location: Plesetsk Cosmodrome, Russian Federation

...

Latest news about this satellite

There are no fresh news available about this satellite. Check back as we update our databases every day.


Newsletter sign-up

Weekly statistics, charts and insights to help you stay on top of the space industry.